"Pseudo-MPEC" for C0J9UN5

Created 2023 Sep 20 11:22:07 UT using Find_Orb

Click here for an explanation of pseudo-MPECs

 
 Astrometry: 
     C0J9UN5* C2023 09 19.24507322 24 52.661-01 43 53.83   ~9J77 21.02GVNEOCPV00
     C0J9UN5  C2023 09 19.25057722 24 47.740-01 42 40.79   ~9J77 20.92GVNEOCPV00
     C0J9UN5  C2023 09 19.25608022 24 42.822-01 41 27.17   ~9J77 20.89GVNEOCPV00
     C0J9UN5  C2023 09 19.26157622 24 37.908-01 40 14.34   ~9J77 20.79GVNEOCPV00
     C0J9UN5 KC2023 09 19.30963322 23 54.604-01 29 29.94   ~9J7q 21.41GVNEOCPV06
     C0J9UN5 KC2023 09 19.31063422 23 53.696-01 29 16.37   ~9J7q 21.05GVNEOCPV06
     C0J9UN5 KC2023 09 19.31163622 23 52.807-01 29 02.83   ~9J7q 21.07GVNEOCPV06
     C0J9UN5 KC2023 09 19.31263622 23 51.904-01 28 49.22   ~9J7q 21.09GVNEOCPV06
     C0J9UN5 1C2023 09 19.83974 22 16 31.76 +00 37 01.8    ~9JKq 20.6 VXNEOCP033
     C0J9UN5 1C2023 09 19.84065 22 16 30.92 +00 37 15.5    ~9JKq 21.0 VXNEOCP033
     C0J9UN5 1C2023 09 19.84156 22 16 30.01 +00 37 29.4    ~9JKq 21.1 VXNEOCP033
     C0J9UN5 1C2023 09 19.84247 22 16 29.08 +00 37 44.4    ~9JKq 20.6 VXNEOCP033
     C0J9UN5 1C2023 09 19.84338 22 16 28.22 +00 37 57.7    ~9JKq 20.9 VXNEOCP033
     C0J9UN5 1C2023 09 19.84505 22 16 26.55 +00 38 23.6    ~9JKq 21.0 VXNEOCP033
     C0J9UN5 KC2023 09 20GbAstrometry92Ipf%7WTP+redacted;sESAI'v1H7im/.Jn/fbK858
     C0J9UN5 KC2023 09 20.14819722 11 43.370+02 00 56.20   ~9K4M 21.09GVNEOCPV06
     C0J9UN5 KC2023 09 20x1u?jn0!:,u_9p.@lsC*j9Knb4Z$`255QY]a[_A[;5Q$Uxclickw858
     C0J9UN5 KC2023 09 20.15267622 11 38.480+02 02 11.10   ~9K4M 20.75GVNEOCPV06
     C0J9UN5 KC2023 09 20R(nBus67-J;G]*]hd@*EZ,fo!!F%here1xWcK`DPm+!/S896#00j858
     C0J9UN5 KC2023 09 20.16071322 11 29.690+02 04 26.00   ~9K4M 21.15GVNEOCPV06
     C0J9UN5 KC2023 09 20.16139422 11 28.980+02 04 37.50   ~9K4M 20.90GVNEOCPV06
     C0J9UN5 KC2023 09 20pi_LD`Q/^bM?g3u1=h=rwp0k`knJUqoL:.Rfor8n)H-FuL3b!EYiH21
     C0J9UN5 KC2023 09 20RAf2-*cQyiE.A^V$`cJ5i^QD]04Sb/?YAyf!))-]LRkGj!*?P?bhH21
     C0J9UN5 KC2023 09 20p-%'AXCPQK*explanationCL4LYqSfV=a\1ZySQ,Y2'kU1C2\MU.H21

Station data:
(033) Karl Schwarzschild Observatory, Tautenburg  (N50.980137 E11.711240)
   Germany.  Observer B. Stecklum. 1.34-m f/3 Schmidt + CCD.
(858) Tebbutt Observatory, Edgewood  (N35.093869 W106.220000)  US/New Mexico.
    Observer F. B. Zoltowski. 0.16-m refractor + CCD0.51-m Schmidt-Cassegrain
   + CCD.
(H21) Astronomical Research Observatory, Westfield  (N39.483054 W87.968270)
   US/Illinois.  Observer R. Holmes. Measurers S. Foglia, L. Buzzi, T.
   Linder, R. Holmes. 0.76-m f/3.0 astrograph + CCD0.81-m f/4.0 astrograph +
   CCD0.61-m f/4.5 astrograph + CCD0.40-m f/5.32 astrograph + CCD.
(V00) Kitt Peak-Bok  (N31.963125 W111.600190)  US/Arizona.  Observers T. A.
   Pruyne, B. M. Africano, E. J. Christensen, G. A. Farneth, D. C. Fuls, A.
   R. Gibbs, A. D. Grauer, H. Gröller, J. A. Johnson, R. A. Kowalski, S. M.
   Larson, G. J. Leonard, D. Rankin, R. L. Seaman, F. C. Shelly, K. W.
   Wierzchoś. 2.25-m reflector + 4x4K mosaic CCD.
(V06) Catalina Sky Survey-Kuiper  (N32.416844 W110.732550)  US/Arizona.
   Observers T. A. Pruyne, B. M. Africano, E. J. Christensen, G. A. Farneth,
   D. C. Fuls, A. R. Gibbs, A. D. Grauer, H. Gröller, J. A. Johnson, R. A.
   Kowalski, S. M. Larson, G. J. Leonard, D. Rankin, R. L. Seaman, F. C.
   Shelly, K. W. Wierzchoś. 1.55-m reflector + CCD.

Orbital elements:  C0J9UN5
   Perihelion 2023 Nov 17.86043 +/- 0.0321 TT = 20:39:00 (JD 2460266.36043)
Epoch 2023 Sep 20.0 TT = JDT 2460207.5   Earth MOID: 0.0159   Ma: 0.0871
M 317.65332206 +/- 0.06             (J2000 ecliptic)             AutoNEOCP
n   0.71944226 +/- 0.000753         Peri.   75.40702 +/- 0.011
a   1.23349885 +/- 0.00086          Node   353.18358 +/- 0.0012
e   0.2997990 +/- 0.000647          Incl.    6.51681 +/- 0.011
P   1.37/500.38d           H 27.70  G  0.15   U  7.9
q 0.86369706 +/- 0.000196    Q 1.60330064 +/- 0.00192
From 24 observations 2023 Sept. 19-20 (22.6 hr); mean residual 0".30
Residuals in arcseconds: 
230919 V00  .16+  .26+    230919 033  .76-  .06+    230920 858  .12-  .57+    
230919 V00  .01-  .04+    230919 033  .14+  .30-    230920 V06  .38+  .39-    
230919 V00  .05-  .31+    230919 033  .01-  .47-    230920 858  .34-  .25+    
230919 V00  .04-  .23-    230919 033  .45-  .46+    230920 V06  .07-  .49-    
230919 V06  .15+  .08-    230919 033  .17+  .31-    230920 V06  .44+  .45-    
230919 V06  .00   .06-    230919 033  .06-  .24-    230920 H21  .17+  .20+    
230919 V06  .15+  .08-    230920 858  .35-  .44+    230920 H21  .04+  .01+    
230919 V06  .06+  .01-    230920 V06  .77+  .17-    230920 H21  .04+  .12-    

Ephemerides (geocentric):
Date (UTC) HH   RA             Dec           delta  r     elong  mag " sig PA
---- --------  ------------   ------------  ------ ------ -----  --- --------
2023 09 20 11  22 06 14.444   +03 33 37.98  .02658 1.0284 154.0 21.0 .102   5
2023 09 20 12  22 05 29.489   +03 46 16.90  .02644 1.0282 153.7 21.0 .070  33
2023 09 20 13  22 04 44.029   +03 59 03.99  .02630 1.0280 153.4 21.0 .072  81
2023 09 20 14  22 03 58.054   +04 11 59.33  .02615 1.0278 153.2 21.0 .113 110
2023 09 20 15  22 03 11.558   +04 25 03.00  .02601 1.0276 152.9 21.0 .172 123
2023 09 20 16  22 02 24.532   +04 38 15.08  .02587 1.0274 152.7 21.0 .240 129
2023 09 20 17  22 01 36.969   +04 51 35.66  .02573 1.0272 152.4 21.0 .314 132
2023 09 20 18  22 00 48.859   +05 05 04.83  .02559 1.0270 152.1 21.0 .394 134
2023 09 20 19  22 00 00.196   +05 18 42.65  .02545 1.0268 151.8 21.0 .480 136
2023 09 20 20  21 59 10.970   +05 32 29.22  .02531 1.0266 151.5 21.0 .571 137
2023 09 20 21  21 58 21.173   +05 46 24.62  .02517 1.0264 151.3 21.0 .667 138
2023 09 20 22  21 57 30.795   +06 00 28.91  .02503 1.0262 151.0 21.0 .770 138
2023 09 20 23  21 56 39.829   +06 14 42.20  .02490 1.0260 150.7 21.0 .878 139
2023 09 21 00  21 55 48.265   +06 29 04.54  .02476 1.0259 150.4 21.0 0.99 139
2023 09 21 01  21 54 56.093   +06 43 36.02  .02462 1.0257 150.1 21.0 1.11 139
2023 09 21 02  21 54 03.304   +06 58 16.71  .02449 1.0255 149.8 21.0 1.24 140
2023 09 21 03  21 53 09.889   +07 13 06.69  .02436 1.0253 149.5 21.0 1.37 140
2023 09 21 04  21 52 15.839   +07 28 06.02  .02422 1.0251 149.2 21.0 1.51 140
2023 09 21 05  21 51 21.142   +07 43 14.78  .02409 1.0249 148.9 21.0 1.66 140
2023 09 21 06  21 50 25.790   +07 58 33.04  .02396 1.0247 148.5 21.0 1.81 140
2023 09 21 07  21 49 29.772   +08 14 00.85  .02383 1.0245 148.2 21.0 1.97 140
2023 09 21 08  21 48 33.077   +08 29 38.30  .02370 1.0243 147.9 21.0 2.14 140
2023 09 21 09  21 47 35.695   +08 45 25.43  .02357 1.0241 147.6 21.0 2.32 140
2023 09 21 10  21 46 37.616   +09 01 22.31  .02345 1.0239 147.2 21.0 2.50 140
2023 09 21 11  21 45 38.829   +09 17 28.99  .02332 1.0237 146.9 21.0 2.69 140
2023 09 21 12  21 44 39.322   +09 33 45.52  .02320 1.0235 146.5 21.0 2.89 140
2023 09 21 13  21 43 39.085   +09 50 11.96  .02307 1.0234 146.2 21.0 3.09 140
2023 09 21 14  21 42 38.106   +10 06 48.36  .02295 1.0232 145.9 20.9 3.31 140
2023 09 21 15  21 41 36.373   +10 23 34.75  .02282 1.0230 145.5 20.9 3.53 140
2023 09 21 16  21 40 33.876   +10 40 31.17  .02270 1.0228 145.1 20.9 3.76 140
2023 09 21 17  21 39 30.601   +10 57 37.67  .02258 1.0226 144.8 20.9 4.00 140
2023 09 21 18  21 38 26.538   +11 14 54.27  .02246 1.0224 144.4 20.9 4.25 140
2023 09 21 19  21 37 21.674   +11 32 20.99  .02235 1.0222 144.0 20.9 4.51 139
2023 09 21 20  21 36 15.996   +11 49 57.87  .02223 1.0220 143.7 20.9 4.78 139
2023 09 21 21  21 35 09.492   +12 07 44.92  .02211 1.0218 143.3 20.9 5.06 139
2023 09 21 22  21 34 02.149   +12 25 42.15  .02200 1.0216 142.9 20.9 5.34 139
2023 09 21 23  21 32 53.955   +12 43 49.57  .02188 1.0214 142.5 20.9 5.64 139
2023 09 22 00  21 31 44.896   +13 02 07.17  .02177 1.0212 142.1 20.9 5.95 139
2023 09 22 01  21 30 34.960   +13 20 34.96  .02166 1.0211 141.7 20.9 6.26 139
2023 09 22 02  21 29 24.132   +13 39 12.92  .02155 1.0209 141.3 20.9 6.59 139
2023 09 22 03  21 28 12.400   +13 58 01.03  .02144 1.0207 140.9 20.9 6.93 139
2023 09 22 04  21 26 59.749   +14 16 59.28  .02133 1.0205 140.5 20.9 7.28 139
2023 09 22 05  21 25 46.166   +14 36 07.62  .02122 1.0203 140.1 20.9 7.63 139
2023 09 22 06  21 24 31.637   +14 55 26.01  .02112 1.0201 139.7 20.9 8.00 139
2023 09 22 07  21 23 16.148   +15 14 54.42  .02101 1.0199 139.3 20.9 8.38 138
2023 09 22 08  21 21 59.684   +15 34 32.78  .02091 1.0197 138.9 20.9 8.78 138
2023 09 22 09  21 20 42.231   +15 54 21.03  .02081 1.0195 138.4 20.9 9.18 138
2023 09 22 10  21 19 23.774   +16 14 19.10  .02071 1.0193 138.0 20.9 9.59 138